This demonstration page uses our WeatherBlox Daily Observations layout. Learn more.

Left ArrowRight Arrow

40.92945, -100.16068

Hourly Observations for August 4, 2020

Temp ( °F °C ) Dew Point ( °F °C ) Humidity (%) Winds ( mph kmh ) Pressure ( in mb ) Visibility ( mi km ) Precip ( " mm )
12:15 am 00:15 Clear 65 18.5 59 15 80 80 SE 9 15 30.08 1019 10 16.0934 0 0
12:35 am 00:35 Partly Cloudy 64 18 59 15 83 83 SE 7 11 30.1 1019 10 16.0934 0 0
12:55 am 00:55 Partly Cloudy 64 17.6 59 15.1 85 85 ESE 9 15 30.09 1019 10 16.0934 0 0
1:15 am 01:15 Clear 63 17.1 59 15.1 88 88 ESE 9 15 30.09 1019 10 16.0934 0 0
1:35 am 01:35 Partly Cloudy 62 16.9 59 15 89 89 ESE 9 15 30.08 1019 10 16.0934 0 0
1:55 am 01:55 Clear 62 16.5 59 15 91 91 SE 10 17 30.07 1018 10 16.0934 0 0
2:15 am 02:15 Clear 62 16.5 59 14.8 90 90 SE 8 13 30.07 1018 10 16.0934 0 0
2:35 am 02:35 Clear 62 16.4 59 14.8 90 90 SE 9 15 30.06 1018 10 16.0934 0 0
2:55 am 02:55 Clear 62 16.4 58 14.7 90 90 SSE 9 15 30.06 1018 10 16.0934 0 0
3:15 am 03:15 Mostly Cloudy 62 16.5 58 14.5 88 88 SSE 10 17 30.07 1018 10 16.0934 0 0
3:35 am 03:35 Partly Cloudy 61 16.3 58 14.2 87 87 SE 10 17 30.06 1018 10 16.0934 0 0
3:55 am 03:55 Partly Cloudy 61 16.2 57 14 87 87 SE 8 13 30.07 1018 10 16.0934 0 0
4:15 am 04:15 Mostly Cloudy 61 16.1 57 14 87 87 SE 8 13 30.08 1018 10 16.0934 0 0
4:35 am 04:35 Mostly Cloudy 61 16 57 13.8 87 87 SSE 9 15 30.08 1019 10 16.0934 0 0
4:55 am 04:55 Mostly Cloudy 60 15.7 57 13.8 89 89 SSE 7 11 30.08 1019 10 16.0934 0 0
5:15 am 05:15 Mostly Cloudy 60 15.6 56 13.6 88 88 SSE 9 15 30.08 1019 10 16.0934 0 0
5:35 am 05:35 Cloudy 60 15.7 57 13.7 88 88 S 8 13 30.09 1019 10 16.0934 0 0
5:55 am 05:55 Cloudy 60 15.6 56 13.6 88 88 SSE 8 13 30.09 1019 10 16.0934 0 0
6:15 am 06:15 Mostly Cloudy 60 15.5 56 13.5 88 88 SSE 9 15 30.09 1019 10 16.0934 0 0
6:35 am 06:35 Partly Cloudy 60 15.5 56 13.1 86 86 SE 10 17 30.09 1019 10 16.0934 0 0
6:55 am 06:55 Sunny 60 15.5 56 13.1 86 86 SSE 12 19 30.08 1019 10 16.0934 0 0
7:15 am 07:15 Sunny 60 15.5 55 13 85 85 SSE 10 17 30.08 1019 10 16.0934 0 0
7:35 am 07:35 Partly Cloudy 60 15.3 55 13 86 86 SE 12 19 30.06 1018 10 16.0934 0 0
7:55 am 07:55 Mostly Cloudy with Nearby Thunderstorms 60 15.5 55 13 85 85 SE 8 13 30.08 1019 10 16.0934 0 0
8:15 am 08:15 Cloudy with Thunderstorms 60 15.7 55 13 84 84 SE 9 15 30.08 1019 10 16.0934 0 0
8:35 am 08:35 Cloudy with Thunderstorms 60 15.8 55 13 84 84 ESE 6 9 30.11 1020 10 16.0934 0 0
8:55 am 08:55 undefined N/A N/A N/A undefined N/A N/A N/A 0 0
9:15 am 09:15 undefined N/A N/A N/A undefined N/A N/A N/A 0 0
9:35 am 09:35 undefined N/A N/A N/A undefined N/A N/A N/A 0 0
9:55 am 09:55 undefined N/A N/A N/A undefined N/A N/A N/A 0 0
10:15 am 10:15 undefined N/A N/A N/A undefined N/A N/A N/A 0 0
10:35 am 10:35 undefined N/A N/A N/A undefined N/A N/A N/A 0 0
10:55 am 10:55 undefined N/A N/A N/A undefined N/A N/A N/A 0 0
11:15 am 11:15 undefined N/A N/A N/A undefined N/A N/A N/A 0 0
11:35 am 11:35 undefined N/A N/A N/A undefined N/A N/A N/A 0 0
11:55 am 11:55 undefined N/A N/A N/A undefined N/A N/A N/A 0 0
12:15 pm 12:15 undefined N/A N/A N/A undefined N/A N/A N/A 0 0
12:35 pm 12:35 undefined N/A N/A N/A undefined N/A N/A N/A 0 0
12:55 pm 12:55 undefined N/A N/A N/A undefined N/A N/A N/A 0 0
1:15 pm 13:15 undefined N/A N/A N/A undefined N/A N/A N/A 0 0
1:35 pm 13:35 undefined N/A N/A N/A undefined N/A N/A N/A 0 0
1:55 pm 13:55 undefined N/A N/A N/A undefined N/A N/A N/A 0 0
2:15 pm 14:15 undefined 71 21.5 62 16.5 73 73 S 18 30 30 1016 10 16.0934 0.01 0.254
2:35 pm 14:35 Mostly Cloudy 72 22 62 16.8 72 72 SSE 16 26 30 1016 10 16.0934 0.01 0.254
2:55 pm 14:55 Cloudy 72 22.1 61 16.2 69 69 S 13 20 29.99 1016 10 16.0934 0.01 0.254
3:15 pm 15:15 Cloudy 73 22.6 62 16.9 70 70 S 14 22 29.99 1016 10 16.0934 0 0
3:35 pm 15:35 Cloudy 73 22.9 62 16.6 68 68 S 10 17 29.99 1015 10 16.0934 0 0
3:55 pm 15:55 Mostly Cloudy 74 23.5 63 17.2 68 68 S 14 22 29.96 1015 10 16.0934 0 0
4:15 pm 16:15 Mostly Cloudy 74 23.5 62 16.8 66 66 SSE 12 19 29.96 1015 10 16.0934 0 0
4:35 pm 16:35 Cloudy 74 23.2 62 16.9 68 68 SSE 13 20 29.96 1015 10 16.0934 0 0
4:55 pm 16:55 Cloudy 74 23.3 62 16.7 67 67 SSE 16 26 29.94 1014 10 16.0934 0 0
5:15 pm 17:15 Cloudy 74 23.1 62 16.6 67 67 SSE 15 24 29.97 1015 10 16.0934 0 0
5:35 pm 17:35 Cloudy 73 22.7 62 16.4 68 68 SSE 12 19 29.97 1015 10 16.0934 0 0
5:55 pm 17:55 Cloudy 73 22.7 61 16.3 67 67 SSE 14 22 29.96 1015 10 16.0934 0 0
6:15 pm 18:15 Cloudy 73 22.5 62 16.7 70 70 SE 13 20 29.95 1014 10 16.0934 0 0
6:35 pm 18:35 Cloudy 72 22.1 62 16.6 71 71 SE 13 20 29.94 1014 10 16.0934 0 0
6:55 pm 18:55 Mostly Cloudy 71 21.9 62 16.8 73 73 SSE 14 22 29.96 1014 10 16.0934 0 0
7:15 pm 19:15 Cloudy 71 21.5 62 16.7 74 74 SSE 12 19 29.97 1015 10 16.0934 0 0
7:35 pm 19:35 Cloudy 71 21.5 62 16.4 73 73 SE 12 19 29.98 1015 10 16.0934 0 0
7:55 pm 19:55 Partly Cloudy 70 21 61 16.1 74 74 SE 10 17 29.97 1015 10 16.0934 0 0
8:15 pm 20:15 Sunny 69 20.5 60 15.7 74 74 SSE 13 20 29.99 1015 10 16.0934 0 0
8:35 pm 20:35 Sunny 68 20 60 15.8 77 77 SSE 9 15 29.99 1016 10 16.0934 0 0
8:55 pm 20:55 Clear 67 19.5 61 16 80 80 S 10 17 29.99 1015 10 16.0934 0 0
9:15 pm 21:15 Partly Cloudy with Light Rain 66 19 60 15.8 82 82 SSE 14 22 29.96 1015 10 16.0934 0 0
9:35 pm 21:35 Clear 66 19 60 15.6 81 81 SE 8 13 29.98 1015 10 16.0934 0 0
9:55 pm 21:55 Clear 66 18.8 60 15.5 81 81 SSE 14 22 29.96 1015 10 16.0934 0 0
10:15 pm 22:15 Clear 66 18.8 59 15.1 79 79 SE 12 19 29.99 1016 10 16.0934 0 0
10:35 pm 22:35 Clear 66 18.7 59 15 79 79 SE 12 19 29.98 1015 10 16.0934 0 0
10:55 pm 22:55 Clear 65 18.5 59 15 80 80 SE 10 17 29.98 1015 10 16.0934 0 0
11:15 pm 23:15 Clear 64 18 59 15 83 83 SSE 9 15 29.99 1016 10 16.0934 0 0
11:35 pm 23:35 Clear 64 17.9 59 14.9 83 83 SE 7 11 29.99 1016 10 16.0934 0 0
11:55 pm 23:55 Clear 63 17.3 59 15 86 86 S 7 11 29.99 1015 10 16.0934 0 0

Powered by AerisWeather